Regional Weather Roundup
Issued by NWS

Home | Current Version | Previous Version | Text Only | Print | Product List | Glossary On
Versions: 1 2 3 4 5 6 7 8 9 10 11 12 13 14 15 16 17 18 19 20 21 22 23 24 25 26 27 28 29 30 31 32 33 34 35 36 37 38 39 40 41 42 43 44 45 46 47 48 49 50
000
ASUS43 KTOP 250708
RWRKS

WEATHER ROUNDUP FOR KANSAS
NATIONAL WEATHER SERVICE GOODLAND KS
200 AM CDT FRI MAY 25 2018

NOTE:  "FAIR" INDICATES FEW OR NO CLOUDS BELOW 12,000 FEET WITH NO
SIGNIFICANT WEATHER AND/OR OBSTRUCTIONS TO VISIBILITY.

KSZ001>006-013>018-027>032-041>047-250800-
NORTHWEST KANSAS

CITY           SKY/WX    TMP DP  RH WIND       PRES   REMARKS
GOODLAND       PTCLDY    58  49  72 MISG      30.01F
HAYS           PTCLDY    61  58  90 E8        29.97S
HILL CITY      CLOUDY    59  56  89 CALM      29.96F
RUSSELL        CLOUDY    64  61  90 SE12      29.96R THUNDER
$$

KSZ061>065-074>080-084>089-250800-
SOUTHWEST KANSAS

CITY           SKY/WX    TMP DP  RH WIND       PRES   REMARKS
DODGE CITY     CLOUDY    64  56  75 NW6       29.99R
ELKHART        PTCLDY    68  64  87 S12       29.98F
GARDEN CITY    PTCLDY    66  52  60 E10       30.01R
GREAT BEND     CLOUDY    61  59  93 SE5       29.96F
LIBERAL        PTCLDY    73  63  70 S18G26    29.97F
PRATT          CLOUDY    72  64  78 E7        29.97S
$$

KSZ066>073-081>083-090>101-250800-
SOUTHEAST KANSAS

CITY           SKY/WX    TMP DP  RH WIND       PRES   REMARKS
CHANUTE        CLOUDY    68  67  96 SE7       29.98F
COFFEYVILLE    CLOUDY    71  67  87 SE6       29.97F
HUTCHINSON     CLOUDY    67  60  78 NE12      30.00R
MEDICINE LODGE   N/A     72  65  78 SW10G17   29.97R
NEWTON         TSTM      66  60  81 N10       30.02R
PARSONS        CLOUDY    70  67  90 SE5       29.99F
WICHITA INTL   MOCLDY    70  66  87 SE7       29.95F
WICHITA JABRA  CLEAR     68  66  93 VRB5      29.97R
WICHITA MCCONL CLEAR     69  64  84 S7        29.96F
WINFIELD       CLEAR     70  67  90 E3        29.97F
$$

KSZ007>012-019>026-033>040-048>060-102>105-250800-
NORTHEAST KANSAS

CITY           SKY/WX    TMP DP  RH WIND       PRES   REMARKS
CONCORDIA      LGT RAIN  70  57  63 W18G29    29.87F
EMPORIA        CLEAR     66  65  96 S10       29.95F
LAWRENCE       CLOUDY    69  66  90 SE6       29.95F
MANHATTAN      PTCLDY    70  65  84 S5        29.93F
MARYSVILLE     CLOUDY    64  64 100 SE6       29.92F
OLATHE IND     MOCLDY    68  66  93 S9        29.96F
OLATHE EXE     TSTM      66  66 100 SE7       29.96F
SALINA         LGT RAIN  67  62  84 S12       29.99R
TOPEKA BILLARD MOCLDY    68  67  96 SE5       29.94F
TOPEKA FORBES  PTCLDY    68  66  93 S8        29.95F
$$



USA.gov is the U.S. government's official web portal to all federal, state and local government web resources and services.